Wayne, NE

3:49 AM CDT on March 23, 2017 (GMT -0500)
Wayne Municipal

Weather History for KLCG - October, 2012

Change the Weather History Date:

Wednesday, October 24, 2012

  Actual Average (KOFK) Record (KOFK)
Temperature  
Mean Temperature 48 °F -  
Max Temperature 51 °F 60 °F 86 °F (1927)
Min Temperature 44 °F 37 °F 14 °F (1926)
Degree Days  
Heating Degree Days 18    
Moisture  
Dew Point 46 °F    
Average Humidity 93    
Maximum Humidity 100    
Minimum Humidity 63    
Precipitation  
Precipitation 0.00 in - - ()
Sea Level Pressure  
Sea Level Pressure 29.82 in    
Wind  
Wind Speed 7 mph (North)    
Max Wind Speed 24 mph    
Max Gust Speed 28 mph    
Visibility 5 miles    
Events Fog , Rain , Thunderstorm    
Averages and records for this station are not official NWS values.
T = Trace of Precipitation, MM = Missing Value Source: NWS Daily Summary

Daily Weather History Graph

Daily Weather History Graph

Search for Another Location

Airport or City:

Trip Planner

Search our weather history database for the weather conditions in past years. The results will help you decide how hot, cold, wet, or windy it might be!

Date:

Astronomy

Oct. 24, 2012 Rise Set
Actual Time 7:51 AM CDT 6:31 PM CDT
Civil Twilight 7:23 AM CDT 7:00 PM CDT
Nautical Twilight 6:50 AM CDT 7:32 PM CDT
Astronomical Twilight 6:17 AM CDT 8:05 PM CDT
Moon 3:52 PM CDT (10/24) 2:43 AM CDT (10/24)
Length of Visible Light 11h 37m
Length of Day
10h 39m
Waxing Gibbous, 76% of the Moon is Illuminated
Oct 24
Waxing Gibbous
Oct 29
Full
Nov 6
Last Quarter
Nov 13
New
Nov 20
First Quarter

Hourly Weather History & Observations

Time (CDT) Temp. Windchill Dew Point Humidity Pressure Visibility Wind Dir Wind Speed Gust Speed Precip Events Conditions
12:15 AM 45.1 °F - 45.0 °F 99% 29.80 in 0.2 mi Calm Calm - N/A Fog Fog
12:35 AM 44.4 °F - 44.2 °F 99% 29.80 in 0.2 mi Calm Calm - N/A Fog Fog
12:55 AM 44.2 °F - 44.1 °F 99% 29.81 in 0.2 mi Calm Calm - N/A Fog Fog
1:35 AM 44.1 °F - 44.1 °F 100% 29.82 in 0.2 mi Calm Calm - N/A Fog Fog
1:55 AM 45.1 °F - 45.1 °F 100% 29.84 in 0.2 mi Calm Calm - N/A Fog Fog
2:15 AM 45.5 °F - 45.5 °F 100% 29.83 in 0.2 mi Calm Calm - N/A Fog Fog
2:35 AM 46.4 °F - 46.4 °F 100% 29.83 in 0.2 mi Calm Calm - N/A Fog Fog
2:55 AM 46.9 °F - 46.9 °F 100% 29.84 in 0.2 mi Calm Calm - N/A Fog Fog
3:15 AM 47.1 °F - 47.1 °F 100% 29.84 in 0.2 mi Calm Calm - N/A Fog Fog
3:35 AM 49.1 °F - 49.1 °F 100% 29.84 in 0.2 mi North 3.5 mph - N/A Fog Fog
3:55 AM 50.0 °F - 50.0 °F 100% 29.83 in 0.5 mi NNW 5.8 mph - N/A Fog Fog
4:15 AM 50.0 °F - 50.0 °F 100% 29.82 in 0.5 mi NNW 9.2 mph - N/A Fog Fog
4:35 AM 50.4 °F - 50.4 °F 100% 29.80 in 3.0 mi North 9.2 mph - N/A   Overcast
4:55 AM 50.2 °F - 50.2 °F 100% 29.79 in 3.0 mi North 10.4 mph - N/A   Overcast
5:15 AM 50.0 °F - 50.0 °F 100% 29.79 in 3.0 mi North 10.4 mph - N/A   Overcast
5:35 AM 50.2 °F - 50.2 °F 100% 29.79 in 3.0 mi North 6.9 mph - N/A   Overcast
5:55 AM 50.5 °F - 50.5 °F 100% 29.81 in 2.5 mi North 4.6 mph - N/A   Overcast
6:15 AM 50.7 °F - 50.7 °F 100% 29.81 in 3.0 mi North 9.2 mph - N/A   Overcast
6:35 AM 50.9 °F - 50.9 °F 100% 29.82 in 4.0 mi NNW 9.2 mph - N/A   Overcast
6:55 AM 50.9 °F - 50.9 °F 100% 29.82 in 4.0 mi North 8.1 mph - N/A   Overcast
7:15 AM 50.9 °F - 50.9 °F 100% 29.82 in 4.0 mi North 10.4 mph - N/A   Overcast
7:35 AM 50.7 °F - 50.7 °F 100% 29.82 in 4.0 mi North 10.4 mph - N/A   Overcast
7:55 AM 50.9 °F - 50.9 °F 100% 29.82 in 3.0 mi North 10.4 mph - N/A   Overcast
8:15 AM 51.4 °F - 51.4 °F 100% 29.83 in 3.0 mi North 9.2 mph - N/A Rain Light Rain
8:35 AM 51.8 °F - 51.8 °F 100% 29.83 in 2.5 mi North 10.4 mph 17.3 mph N/A   Drizzle
8:55 AM 51.8 °F - 51.8 °F 100% 29.83 in 2.5 mi North 10.4 mph - N/A   Light Drizzle
9:35 AM 50.9 °F - 50.9 °F 100% 29.83 in 1.8 mi North 11.5 mph 18.4 mph N/A   Overcast
9:55 AM 50.5 °F - 50.5 °F 100% 29.82 in 1.5 mi North 10.4 mph 19.6 mph N/A   Light Drizzle
10:15 AM 50.4 °F - 50.4 °F 100% 29.83 in 1.2 mi North 15.0 mph 20.7 mph N/A   Overcast
10:35 AM 50.0 °F - 50.0 °F 100% 29.83 in 1.2 mi North 12.7 mph 18.4 mph N/A   Overcast
10:55 AM 49.1 °F - 49.1 °F 100% 29.84 in 1.2 mi North 11.5 mph - N/A   Overcast
11:15 AM 50.0 °F - 50.0 °F 100% 29.84 in 1.8 mi North 9.2 mph - N/A   Drizzle
11:35 AM 50.4 °F - 50.4 °F 100% 29.83 in 1.8 mi North 11.5 mph - N/A   Overcast
11:55 AM 50.9 °F - 50.9 °F 100% 29.83 in 2.5 mi North 11.5 mph - N/A   Overcast
12:15 PM 50.9 °F - 50.9 °F 100% 29.83 in 3.0 mi North 12.7 mph 16.1 mph N/A   Overcast
12:35 PM 50.0 °F - 50.0 °F 100% 29.82 in 2.5 mi North 15.0 mph 18.4 mph N/A   Overcast
12:55 PM 49.5 °F - 49.5 °F 100% 29.82 in 1.8 mi North 11.5 mph 18.4 mph N/A   Overcast
1:15 PM 49.1 °F - 49.1 °F 100% 29.81 in 2.0 mi North 13.8 mph 19.6 mph N/A   Overcast
1:35 PM 49.1 °F - 48.7 °F 99% 29.81 in 2.5 mi North 13.8 mph 17.3 mph N/A   Overcast
1:55 PM 49.1 °F - 48.9 °F 99% 29.81 in 2.5 mi North 10.4 mph - N/A   Overcast
2:15 PM 48.7 °F - 48.6 °F 99% 29.81 in 2.5 mi North 10.4 mph - N/A   Overcast
2:35 PM 48.7 °F - 48.6 °F 99% 29.81 in 2.5 mi North 9.2 mph - N/A   Overcast
2:55 PM 48.6 °F - 48.4 °F 99% 29.80 in 2.5 mi North 16.1 mph 19.6 mph N/A   Overcast
3:15 PM 48.6 °F - 48.4 °F 99% 29.78 in 2.5 mi North 15.0 mph 20.7 mph N/A   Overcast
3:35 PM 48.7 °F - 48.6 °F 99% 29.79 in 3.0 mi North 18.4 mph - N/A   Overcast
4:15 PM 48.7 °F - 48.6 °F 99% 29.80 in 7.0 mi North 11.5 mph - N/A   Overcast
4:35 PM 48.2 °F - 47.8 °F 99% 29.80 in 10.0 mi North 16.1 mph 21.9 mph N/A   Overcast
4:55 PM 47.7 °F - 46.8 °F 97% 29.80 in 10.0 mi NNE 16.1 mph 21.9 mph N/A   Overcast
5:15 PM 47.5 °F - 45.9 °F 94% 29.79 in 10.0 mi NNE 18.4 mph 21.9 mph N/A   Overcast
5:35 PM 47.5 °F - 45.9 °F 94% 29.80 in 10.0 mi North 12.7 mph - N/A   Overcast
5:55 PM 47.7 °F - 46.0 °F 94% 29.81 in 10.0 mi NNE 12.7 mph 17.3 mph N/A   Overcast
6:15 PM 47.7 °F - 45.3 °F 92% 29.81 in 10.0 mi North 12.7 mph - N/A   Overcast
6:35 PM 47.5 °F - 44.6 °F 90% 29.80 in 10.0 mi NNE 17.3 mph 20.7 mph N/A   Overcast
6:55 PM 47.5 °F - 44.4 °F 89% 29.81 in 10.0 mi NNE 17.3 mph - N/A   Overcast
7:15 PM 47.8 °F - 43.2 °F 84% 29.80 in 10.0 mi NNE 24.2 mph 27.6 mph N/A   Overcast
7:35 PM 47.5 °F - 43.0 °F 84% 29.80 in 10.0 mi NNE 16.1 mph - N/A   Overcast
7:55 PM 47.3 °F - 42.8 °F 84% 29.80 in 10.0 mi NNE 17.3 mph 20.7 mph N/A   Overcast
8:15 PM 47.8 °F - 42.4 °F 82% 29.81 in 10.0 mi NNE 16.1 mph 19.6 mph N/A   Overcast
8:35 PM 48.2 °F - 40.6 °F 75% 29.82 in 10.0 mi North 13.8 mph - N/A   Overcast
8:55 PM 48.2 °F - 41.2 °F 77% 29.83 in 10.0 mi North 10.4 mph - N/A   Overcast
9:15 PM 47.8 °F - 39.6 °F 73% 29.83 in 10.0 mi North 12.7 mph 19.6 mph N/A   Overcast
9:35 PM 47.5 °F - 36.5 °F 66% 29.84 in 10.0 mi North 11.5 mph 19.6 mph N/A   Overcast
9:55 PM 46.8 °F - 37.8 °F 71% 29.84 in 10.0 mi North 9.2 mph - N/A   Overcast
10:15 PM 46.8 °F - 35.6 °F 65% 29.83 in 10.0 mi North 11.5 mph - N/A   Overcast
10:35 PM 46.4 °F 40.1 °F 35.6 °F 66% 29.83 in 10.0 mi North 15.0 mph 20.7 mph N/A   Overcast
10:55 PM 46.0 °F 39.6 °F 34.2 °F 63% 29.85 in 10.0 mi North 15.0 mph 21.9 mph N/A   Overcast
11:15 PM 45.9 °F 38.5 °F 34.2 °F 64% 29.84 in 10.0 mi North 18.4 mph 23.0 mph N/A   Overcast
11:35 PM 45.3 °F 38.7 °F 33.8 °F 64% 29.81 in 10.0 mi North 15.0 mph 23.0 mph N/A   Overcast
11:55 PM 44.8 °F 38.0 °F 33.1 °F 64% 29.79 in 10.0 mi North 15.0 mph 25.3 mph N/A Thunderstorm Overcast